Time,TemperatureF,DewpointF,PressureIn,WindDirection,WindDirectionDegrees,WindSpeedMPH,WindSpeedGustMPH,Humidity,HourlyPrecipIn,Conditions,Clouds,dailyrainin,SoftwareType,DateUTC
2013-03-29 00:13:00,34.8,28.0,30.32,SSW,202,0.0,3.0,77,0.00,,,0.00,weatherlink.com 1.10,2013-03-29 05:13:00,
2013-03-29 00:28:00,34.9,29.0,30.32,SSW,202,1.0,2.0,78,0.00,,,0.00,weatherlink.com 1.10,2013-03-29 05:28:00,
2013-03-29 00:43:00,33.5,28.0,30.32,SSW,213,2.0,4.0,81,0.00,,,0.00,weatherlink.com 1.10,2013-03-29 05:43:00,
2013-03-29 00:58:00,33.7,29.0,30.31,SSW,212,1.0,4.0,83,0.00,,,0.00,weatherlink.com 1.10,2013-03-29 05:58:00,
2013-03-29 01:13:00,34.4,29.0,30.31,SSW,212,0.0,2.0,82,0.00,,,0.00,weatherlink.com 1.10,2013-03-29 06:13:00,
2013-03-29 01:28:00,34.8,30.0,30.32,SSW,212,3.0,4.0,82,0.00,,,0.00,weatherlink.com 1.10,2013-03-29 06:28:00,
2013-03-29 01:58:00,35.2,30.0,30.32,West,271,2.0,5.0,80,0.00,,,0.00,weatherlink.com 1.10,2013-03-29 06:58:00,
2013-03-29 02:13:00,35.6,30.0,30.32,WNW,284,2.0,3.0,81,0.00,,,0.00,weatherlink.com 1.10,2013-03-29 07:13:00,
2013-03-29 02:28:00,35.4,30.0,30.32,WNW,284,3.0,3.0,82,0.00,,,0.00,weatherlink.com 1.10,2013-03-29 07:28:00,
2013-03-29 02:43:00,35.2,31.0,30.31,NNW,329,5.0,6.0,83,0.00,,,0.00,weatherlink.com 1.10,2013-03-29 07:43:00,
2013-03-29 02:58:00,35.4,31.0,30.31,North,10,3.0,6.0,83,0.00,,,0.00,weatherlink.com 1.10,2013-03-29 07:58:00,
2013-03-29 03:13:00,35.6,31.0,30.31,North,11,2.0,4.0,83,0.00,,,0.00,weatherlink.com 1.10,2013-03-29 08:13:00,
2013-03-29 03:28:00,35.8,31.0,30.30,North,10,2.0,5.0,83,0.00,,,0.00,weatherlink.com 1.10,2013-03-29 08:28:00,
2013-03-29 03:43:00,35.8,31.0,30.30,North,11,2.0,4.0,83,0.00,,,0.00,weatherlink.com 1.10,2013-03-29 08:43:00,
2013-03-29 03:58:00,36.4,31.0,30.30,North,11,2.0,4.0,81,0.00,,,0.00,weatherlink.com 1.10,2013-03-29 08:58:00,
2013-03-29 04:13:00,36.9,31.0,30.29,NNE,13,3.0,4.0,78,0.00,,,0.00,weatherlink.com 1.10,2013-03-29 09:13:00,
2013-03-29 04:28:00,35.9,31.0,30.29,NNE,33,5.0,6.0,82,0.00,,,0.00,weatherlink.com 1.10,2013-03-29 09:28:00,
2013-03-29 04:43:00,36.0,31.0,30.28,NE,48,3.0,5.0,82,0.00,,,0.00,weatherlink.com 1.10,2013-03-29 09:43:00,
2013-03-29 04:58:00,35.6,31.0,30.28,NE,46,3.0,6.0,84,0.00,,,0.00,weatherlink.com 1.10,2013-03-29 09:58:00,
2013-03-29 05:13:00,36.3,31.0,30.28,NE,46,1.0,3.0,80,0.00,,,0.00,weatherlink.com 1.10,2013-03-29 10:13:00,
2013-03-29 05:28:00,36.1,31.0,30.29,NE,43,3.0,5.0,80,0.00,,,0.00,weatherlink.com 1.10,2013-03-29 10:28:00,
2013-03-29 05:43:00,36.7,30.0,30.29,NE,43,1.0,4.0,77,0.00,,,0.00,weatherlink.com 1.10,2013-03-29 10:43:00,
2013-03-29 05:58:00,36.5,31.0,30.29,NE,43,1.0,3.0,80,0.00,,,0.00,weatherlink.com 1.10,2013-03-29 10:58:00,
2013-03-29 06:13:00,35.7,31.0,30.30,NE,43,1.0,2.0,82,0.00,,,0.00,weatherlink.com 1.10,2013-03-29 11:13:00,
2013-03-29 06:28:00,35.4,31.0,30.30,NE,43,1.0,4.0,83,0.00,,,0.00,weatherlink.com 1.10,2013-03-29 11:28:00,
2013-03-29 06:43:00,35.4,30.0,30.31,NE,44,2.0,4.0,82,0.00,,,0.00,weatherlink.com 1.10,2013-03-29 11:43:00,
2013-03-29 06:58:00,35.5,31.0,30.31,ENE,57,1.0,4.0,82,0.00,,,0.00,weatherlink.com 1.10,2013-03-29 11:58:00,
2013-03-29 07:13:00,36.4,30.0,30.31,ENE,63,2.0,5.0,77,0.00,,,0.00,weatherlink.com 1.10,2013-03-29 12:13:00,
2013-03-29 07:28:00,36.9,30.0,30.32,SE,146,4.0,7.0,76,0.00,,,0.00,weatherlink.com 1.10,2013-03-29 12:28:00,
2013-03-29 07:43:00,37.8,30.0,30.32,SE,146,3.0,7.0,73,0.00,,,0.00,weatherlink.com 1.10,2013-03-29 12:43:00,
2013-03-29 07:58:00,37.5,31.0,30.32,SSE,152,4.0,8.0,76,0.00,,,0.00,weatherlink.com 1.10,2013-03-29 12:58:00,
2013-03-29 08:13:00,38.3,31.0,30.32,SSE,148,3.0,5.0,75,0.00,,,0.00,weatherlink.com 1.10,2013-03-29 13:13:00,
2013-03-29 08:28:00,39.7,32.0,30.32,SE,146,3.0,5.0,73,0.00,,,0.00,weatherlink.com 1.10,2013-03-29 13:28:00,
2013-03-29 08:43:00,40.9,33.0,30.33,SE,130,4.0,4.0,72,0.00,,,0.00,weatherlink.com 1.10,2013-03-29 13:43:00,
2013-03-29 08:58:00,40.9,32.0,30.33,SE,130,2.0,5.0,71,0.00,,,0.00,weatherlink.com 1.10,2013-03-29 13:58:00,
2013-03-29 09:13:00,42.0,32.0,30.33,SE,130,2.0,5.0,69,0.00,,,0.00,weatherlink.com 1.10,2013-03-29 14:13:00,
2013-03-29 09:28:00,44.5,32.0,30.33,SE,130,3.0,4.0,63,0.00,,,0.00,weatherlink.com 1.10,2013-03-29 14:28:00,
2013-03-29 09:44:00,44.7,32.0,30.33,SE,134,2.0,7.0,62,0.00,,,0.00,weatherlink.com 1.10,2013-03-29 14:44:00,
2013-03-29 09:59:00,44.7,31.0,30.33,SE,134,5.0,6.0,60,0.00,,,0.00,weatherlink.com 1.10,2013-03-29 14:59:00,
2013-03-29 10:14:00,45.8,32.0,30.33,ESE,121,1.0,8.0,58,0.00,,,0.00,weatherlink.com 1.10,2013-03-29 15:14:00,
2013-03-29 10:29:00,47.9,30.0,30.33,ESE,114,4.0,9.0,51,0.00,,,0.00,weatherlink.com 1.10,2013-03-29 15:29:00,
2013-03-29 10:44:00,48.1,32.0,30.33,East,98,5.0,9.0,54,0.00,,,0.00,weatherlink.com 1.10,2013-03-29 15:44:00,
2013-03-29 10:59:00,48.8,33.0,30.33,ESE,117,3.0,8.0,55,0.00,,,0.00,weatherlink.com 1.10,2013-03-29 15:59:00,
2013-03-29 11:14:00,48.7,33.0,30.33,East,93,7.0,10.0,54,0.00,,,0.00,weatherlink.com 1.10,2013-03-29 16:14:00,
2013-03-29 11:29:00,49.1,33.0,30.32,ESE,113,5.0,10.0,55,0.00,,,0.00,weatherlink.com 1.10,2013-03-29 16:29:00,
2013-03-29 11:44:00,50.9,34.0,30.32,ESE,113,5.0,11.0,53,0.00,,,0.00,weatherlink.com 1.10,2013-03-29 16:44:00,
2013-03-29 11:59:00,51.3,34.0,30.32,ESE,123,7.0,10.0,51,0.00,,,0.00,weatherlink.com 1.10,2013-03-29 16:59:00,
2013-03-29 12:14:00,50.7,33.0,30.31,SSE,155,6.0,7.0,51,0.00,,,0.00,weatherlink.com 1.10,2013-03-29 17:14:00,
2013-03-29 12:29:00,51.2,34.0,30.31,SE,144,1.0,10.0,52,0.00,,,0.00,weatherlink.com 1.10,2013-03-29 17:29:00,
2013-03-29 12:44:00,51.5,34.0,30.30,East,97,6.0,8.0,52,0.00,,,0.00,weatherlink.com 1.10,2013-03-29 17:44:00,
2013-03-29 12:59:00,51.9,34.0,30.30,SE,146,3.0,10.0,50,0.00,,,0.00,weatherlink.com 1.10,2013-03-29 17:59:00,
2013-03-29 13:14:00,52.2,32.0,30.30,South,174,5.0,9.0,47,0.00,,,0.00,weatherlink.com 1.10,2013-03-29 18:14:00,
2013-03-29 13:29:00,52.7,33.0,30.29,SSE,147,1.0,11.0,47,0.00,,,0.00,weatherlink.com 1.10,2013-03-29 18:29:00,
2013-03-29 13:44:00,54.0,33.0,30.28,SE,131,6.0,13.0,45,0.00,,,0.00,weatherlink.com 1.10,2013-03-29 18:44:00,
2013-03-29 13:59:00,52.5,32.0,30.28,SSE,162,5.0,9.0,46,0.00,,,0.00,weatherlink.com 1.10,2013-03-29 18:59:00,
2013-03-29 14:14:00,54.5,33.0,30.27,South,182,2.0,5.0,45,0.00,,,0.00,weatherlink.com 1.10,2013-03-29 19:14:00,
2013-03-29 14:29:00,54.6,33.0,30.27,ENE,73,4.0,11.0,45,0.00,,,0.00,weatherlink.com 1.10,2013-03-29 19:29:00,
2013-03-29 14:44:00,53.9,33.0,30.26,NE,46,2.0,9.0,45,0.00,,,0.00,weatherlink.com 1.10,2013-03-29 19:44:00,
2013-03-29 14:59:00,53.3,32.0,30.26,NE,52,3.0,7.0,45,0.00,,,0.00,weatherlink.com 1.10,2013-03-29 19:59:00,
2013-03-29 15:14:00,54.2,32.0,30.26,NE,51,2.0,4.0,43,0.00,,,0.00,weatherlink.com 1.10,2013-03-29 20:14:00,
2013-03-29 15:29:00,53.9,33.0,30.25,NE,43,2.0,5.0,46,0.00,,,0.00,weatherlink.com 1.10,2013-03-29 20:29:00,
2013-03-29 15:44:00,56.1,33.0,30.24,ENE,67,2.0,5.0,42,0.00,,,0.00,weatherlink.com 1.10,2013-03-29 20:44:00,
2013-03-29 16:14:00,56.1,32.0,30.24,ENE,61,3.0,6.0,41,0.00,,,0.00,weatherlink.com 1.10,2013-03-29 21:14:00,
2013-03-29 16:29:00,54.1,32.0,30.23,NE,44,1.0,5.0,43,0.00,,,0.00,weatherlink.com 1.10,2013-03-29 21:29:00,
2013-03-29 16:44:00,53.6,32.0,30.23,NE,44,2.0,4.0,44,0.00,,,0.00,weatherlink.com 1.10,2013-03-29 21:44:00,
2013-03-29 16:59:00,55.6,33.0,30.23,NE,44,2.0,4.0,42,0.00,,,0.00,weatherlink.com 1.10,2013-03-29 21:59:00,
2013-03-29 17:14:00,55.9,33.0,30.23,NE,44,1.0,4.0,42,0.00,,,0.00,weatherlink.com 1.10,2013-03-29 22:14:00,
2013-03-29 17:29:00,54.9,33.0,30.23,NE,50,2.0,6.0,44,0.00,,,0.00,weatherlink.com 1.10,2013-03-29 22:29:00,
2013-03-29 17:44:00,53.4,34.0,30.23,ENE,57,3.0,7.0,48,0.00,,,0.00,weatherlink.com 1.10,2013-03-29 22:44:00,
2013-03-29 17:59:00,52.9,34.0,30.23,ENE,57,2.0,4.0,49,0.00,,,0.00,weatherlink.com 1.10,2013-03-29 22:59:00,
2013-03-29 18:14:00,53.0,33.0,30.23,ENE,57,0.0,2.0,46,0.00,,,0.00,weatherlink.com 1.10,2013-03-29 23:14:00,
2013-03-29 18:29:00,53.3,32.0,30.23,ENE,57,0.0,2.0,45,0.00,,,0.00,weatherlink.com 1.10,2013-03-29 23:29:00,
2013-03-29 18:44:00,52.8,32.0,30.23,ENE,57,1.0,2.0,46,0.00,,,0.00,weatherlink.com 1.10,2013-03-29 23:44:00,
2013-03-29 18:59:00,51.8,34.0,30.23,ENE,57,2.0,4.0,52,0.00,,,0.00,weatherlink.com 1.10,2013-03-29 23:59:00,
2013-03-29 19:14:00,50.8,34.0,30.23,ENE,57,0.0,2.0,53,0.00,,,0.00,weatherlink.com 1.10,2013-03-30 00:14:00,
2013-03-29 19:29:00,49.4,34.0,30.23,ENE,57,0.0,2.0,56,0.00,,,0.00,weatherlink.com 1.10,2013-03-30 00:29:00,
2013-03-29 19:44:00,49.0,34.0,30.23,ENE,57,0.0,0.0,56,0.00,,,0.00,weatherlink.com 1.10,2013-03-30 00:44:00,
2013-03-29 19:59:00,48.5,35.0,30.23,ENE,57,2.0,3.0,59,0.00,,,0.00,weatherlink.com 1.10,2013-03-30 00:59:00,
2013-03-29 20:14:00,47.9,35.0,30.23,ENE,57,1.0,2.0,61,0.00,,,0.00,weatherlink.com 1.10,2013-03-30 01:14:00,
2013-03-29 20:30:00,47.2,35.0,30.23,ENE,57,0.0,3.0,64,0.00,,,0.00,weatherlink.com 1.10,2013-03-30 01:30:00,
2013-03-29 20:45:00,45.6,36.0,30.24,ENE,57,1.0,2.0,69,0.00,,,0.00,weatherlink.com 1.10,2013-03-30 01:45:00,
2013-03-29 21:00:00,45.0,36.0,30.24,ENE,57,1.0,2.0,71,0.00,,,0.00,weatherlink.com 1.10,2013-03-30 02:00:00,
2013-03-29 21:15:00,44.5,36.0,30.24,ENE,57,0.0,1.0,72,0.00,,,0.00,weatherlink.com 1.10,2013-03-30 02:15:00,
2013-03-29 21:30:00,43.2,35.0,30.25,ENE,57,0.0,3.0,73,0.00,,,0.00,weatherlink.com 1.10,2013-03-30 02:30:00,
2013-03-29 21:45:00,43.2,34.0,30.25,ENE,57,1.0,2.0,70,0.00,,,0.00,weatherlink.com 1.10,2013-03-30 02:45:00,
2013-03-29 22:00:00,44.3,33.0,30.25,ENE,57,1.0,3.0,65,0.00,,,0.00,weatherlink.com 1.10,2013-03-30 03:00:00,
2013-03-29 22:15:00,42.6,33.0,30.25,ENE,57,0.0,3.0,68,0.00,,,0.00,weatherlink.com 1.10,2013-03-30 03:15:00,
2013-03-29 22:30:00,40.4,34.0,30.25,ENE,57,4.0,4.0,77,0.00,,,0.00,weatherlink.com 1.10,2013-03-30 03:30:00,
2013-03-29 22:45:00,41.5,34.0,30.24,ENE,57,2.0,3.0,75,0.00,,,0.00,weatherlink.com 1.10,2013-03-30 03:45:00,
2013-03-29 23:00:00,43.3,34.0,30.24,ENE,57,1.0,4.0,69,0.00,,,0.00,weatherlink.com 1.10,2013-03-30 04:00:00,
2013-03-29 23:15:00,42.8,33.0,30.24,ENE,57,1.0,2.0,69,0.00,,,0.00,weatherlink.com 1.10,2013-03-30 04:15:00,
2013-03-29 23:30:00,42.1,33.0,30.23,ENE,57,0.0,2.0,70,0.00,,,0.00,weatherlink.com 1.10,2013-03-30 04:30:00,
2013-03-29 23:45:00,41.5,33.0,30.23,ENE,57,1.0,2.0,72,0.00,,,0.00,weatherlink.com 1.10,2013-03-30 04:45:00,